Regional Weather Roundup
Issued by NWS

Home | Current Version | Previous Version | Text Only | Print | Product List | Glossary Off
Versions: 1 2 3 4 5 6 7 8 9 10 11 12 13 14 15 16 17 18 19 20 21 22 23 24 25 26 27 28 29 30 31 32 33 34 35 36 37 38 39 40 41 42 43 44 45 46 47 48 49 50

000
ASUS45 KPSR 200900
RWRAZ

PRELIMINARY ARIZONA REGIONAL HOURLY WEATHER ROUNDUP
NATIONAL WEATHER SERVICE PHOENIX AZ
200 AM MST WED AUG 20 2014

NOTE: FAIR INDICATES FEW OR NO CLOUDS BELOW 12,000 FEET WITH NO
SIGNIFICANT WEATHER AND/OR OBSTRUCTIONS TO VISIBILITY.

AZZ001>003-036-201000-
NORTHWEST ARIZONA

CITY           SKY/WX    TMP DP  RH WIND       PRES   REMARKS
KINGMAN        CLEAR     68  56  65 SE16      29.95R
$$

AZZ004>008-015-016-018-201000-
NORTH CENTRAL ARIZONA

CITY           SKY/WX    TMP DP  RH WIND       PRES   REMARKS
GRAND CANYON     N/A    N/A N/A N/A MISG        N/A
WILLIAMS       CLEAR     57  50  77 SW13      30.21S
PRESCOTT       CLEAR     55  52  89 CALM      30.09R
FLAGSTAFF      MOCLDY    51  48  89 CALM      30.19S
PAYSON         CLOUDY    61  59  94 CALM      30.12S
PAGE           CLEAR     67  60  78 CALM      29.98S
$$

AZZ009>014-017-201000-
NORTHEAST ARIZONA

CITY           SKY/WX    TMP DP  RH WIND       PRES   REMARKS
WINSLOW        NOT AVBL
SAINT JOHNS    PTCLDY    59  50  72 SW6       30.09S
WINDOW ROCK    PTCLDY    57  51  80 CALM      30.15R
$$

AZZ023-201000-
GREATER PHOENIX AREA

CITY           SKY/WX    TMP DP  RH WIND       PRES   REMARKS
PHOENIX        PTCLDY    77  67  71 E7        29.84S
DEER VALLEY    CLEAR     73  66  78 CALM      29.87R
SCOTTSDALE     CLEAR     75  66  73 N3        29.89R
MESA-GATEWAY   PTCLDY    79  64  61 CALM      29.88S
$$

AZZ027-028-201000-
SOUTHWEST MARICOPA COUNTY AND PINAL COUNTY

CITY           SKY/WX    TMP DP  RH WIND       PRES   REMARKS
CASA GRANDE    CLEAR     75  66  73 CALM      29.87R
$$

AZZ503-504-507>509-201000-
SOUTHEAST ARIZONA

CITY           SKY/WX    TMP DP  RH WIND       PRES   REMARKS
TUCSON         CLEAR     73  65  75 SE7       29.98R
DAVIS-MONTHAN  PTCLDY    71  64  79 SE9       29.96S
NOGALES        PTCLDY    65  60  84 SE6       30.05F
SIERRA VISTA   PTCLDY    63  63 100 E5        30.09R
SAFFORD        MOCLDY    66  64  93 W8        29.98F
$$

AZZ020-021-025-026-031-201000-
SOUTHWEST ARIZONA

CITY           SKY/WX    TMP DP  RH WIND       PRES   REMARKS
YUMA           NOT AVBL
$$

CAZ031-033-041-043-047-048-061-201000-
SOUTHERN CALIFORNIA

CITY           SKY/WX    TMP DP  RH WIND       PRES   REMARKS
DOWNTOWN L.A.  CLOUDY    71  59  65 VRB5      29.87F
L.A. AIRPORT   CLOUDY    69  61  75 CALM      29.89S
SAN DIEGO      CLOUDY    69  59  70 CALM      29.91S
BURBANK        CLOUDY    68  59  73 SE8       29.88F
ONTARIO        PTCLDY    65  59  81 SW6       29.89F
RIVERSIDE      CLEAR     65  59  81 SW3       29.90F
PALM SPRINGS   PTCLDY    81  50  33 NE3       29.78S
EL CENTRO NAS  MOCLDY    87  26  11 W17       29.73R
IMPERIAL       MOCLDY    86  30  13 NW13      29.72S
BLYTHE         PTCLDY    83  52  34 S10       29.75S
$$

NVZ020-UTZ003-201000-
SOUTHERN NEVADA-UTAH

CITY           SKY/WX    TMP DP  RH WIND       PRES   REMARKS
LAS VEGAS      NOT AVBL
SALT LAKE CITY LGT RAIN  65  59  81 E9        29.92R
$$

NMZ009-TXZ055-201000-
NEW MEXICO-WEST TEXAS

CITY           SKY/WX    TMP DP  RH WIND       PRES   REMARKS
ALBUQUERQUE    CLOUDY    69  51  52 SE3       30.04S
EL PASO        PTCLDY    71  57  61 SW12      29.96R
$$


........................KEY........................
SKY/WX - SKY CONDITION/WEATHER
TMP    - TEMPERATURE IN FAHRENHEIT
DP     - DEW POINT IN FAHRENHEIT
RH     - RELATIVE HUMIDITY IN PERCENT
WIND   - DIRECTION AND SPEED IN MILES PER HOUR (MPH)
VRB    - VARIABLE WIND DIRECTION
PRES   - MEAN SEA LEVEL PRESSURE IN INCHES OF MERCURY
         F - FALLING PRESSURE   R - RISING PRESSURE
         S - STEADY PRESSURE
VSB    - VISIBILITY IN MILES
HX     - HEAT INDEX IN FAHRENHEIT
WCI    - WIND CHILL INDEX IN FAHRENHEIT
TC     - TEMPERATURE IN CELSIUS WHICH IS ALSO KNOWN AS
         TEMPERATURE IN CENTIGRADE
AFB    - AIR FORCE BASE
         LUKE AFB IS LUKE AIR FORCE BASE
         DAVIS-MONTHAN IS DAVIS-MONTHAN AIR FORCE BASE
NAS    - NAVAL AIR STATION
         EL CENTRO NAS IS EL CENTRO NAVAL AIR STATION
N/A    - NOT AVAILABLE



USA.gov is the U.S. government's official web portal to all federal, state and local government web resources and services.